Weather History for Mount Ida, AR

Change the Weather History Date:

Sunday, March 10, 2013

  Actual Average (KHOT) Record (KHOT)
Temperature  
Mean Temperature 51 °F -  
Max Temperature 63 °F 63 °F 84 °F (1955)
Min Temperature 37 °F 41 °F 23 °F (1998)
Degree Days  
Heating Degree Days 14    
Growing Degree Days 1 (Base 50)    
Moisture  
Dew Point 45 °F    
Average Humidity 82    
Maximum Humidity 100    
Minimum Humidity 51    
Precipitation  
Precipitation 1.09 in - - ()
Sea Level Pressure  
Sea Level Pressure 29.78 in    
Wind  
Wind Speed 8 mph (WNW)    
Max Wind Speed 12 mph    
Max Gust Speed 26 mph    
Visibility 8 miles    
Events Rain    
Averages and records for this station are not official NWS values.
T = Trace of Precipitation, MM = Missing Value Source: NWS Daily Summary

Daily Weather History Graph

Daily Weather History Graph

Search for Another Location

Airport:

Trip Planner

Search our weather history database for the weather conditions in past years. The results will help you decide how hot, cold, wet, or windy it might be!

Date:

Astronomy

Mar. 10, 2013 Rise Set
Actual Time 7:31 AM CDT 7:18 PM CDT
Civil Twilight 7:06 AM CDT 7:43 PM CDT
Nautical Twilight 6:37 AM CDT 8:12 PM CDT
Astronomical Twilight 6:07 AM CDT 8:41 PM CDT
Moon 6:30 AM CDT (3/10) 6:27 PM CDT (3/10)
Length of Visible Light 12h 37m
Length of Day
11h 46m
Waning Crescent, 2% of the Moon is Illuminated
Mar 10
Waning Crescent
Mar 11
New
Mar 19
First Quarter
Mar 27
Full
Apr 2
Last Quarter

Hourly Weather History & Observations

Time (CDT) Temp. Windchill Dew Point Humidity Pressure Visibility Wind Dir Wind Speed Gust Speed Precip Events Conditions
12:53 AM 63.0 °F - 55.9 °F 78% 29.74 in 10.0 mi South 11.5 mph 20.7 mph 0.00 in   Overcast
1:53 AM 63.0 °F - 55.9 °F 78% 29.72 in 10.0 mi South 9.2 mph 21.9 mph N/A   Overcast
3:53 AM 63.0 °F - 55.9 °F 78% 29.70 in 10.0 mi Variable 4.6 mph - N/A   Overcast
4:53 AM 62.1 °F - 57.0 °F 84% 29.68 in 10.0 mi Variable 6.9 mph 18.4 mph 0.01 in Rain Light Rain
5:53 AM 62.1 °F - 57.9 °F 86% 29.64 in 10.0 mi SSE 6.9 mph - 0.01 in Rain Light Rain
6:47 AM 57.2 °F - 55.4 °F 94% 29.67 in 2.5 mi NW 11.5 mph 20.7 mph 0.05 in Rain Heavy Rain
6:53 AM 54.0 °F - 53.1 °F 97% 29.67 in 1.2 mi NNW 6.9 mph 20.7 mph 0.20 in Rain Heavy Rain
7:15 AM 53.6 °F - 51.8 °F 94% 29.67 in 2.0 mi Variable 5.8 mph - 0.16 in Rain Heavy Rain
7:22 AM 53.6 °F - 51.8 °F 94% 29.70 in 1.5 mi Variable 3.5 mph - 0.23 in Rain Heavy Rain
7:46 AM 51.8 °F - 51.8 °F 100% 29.73 in 2.0 mi WNW 5.8 mph - 0.46 in Rain Heavy Rain
7:53 AM 52.0 °F - 51.1 °F 97% 29.75 in 2.0 mi WNW 9.2 mph - 0.50 in Rain Heavy Rain
8:02 AM 51.8 °F - 51.8 °F 100% 29.76 in 1.8 mi WNW 10.4 mph 20.7 mph 0.07 in Rain Heavy Rain
8:16 AM 51.8 °F - 50.0 °F 94% 29.75 in 2.0 mi Variable 6.9 mph 17.3 mph 0.14 in Rain Rain
8:26 AM 51.8 °F - 50.0 °F 94% 29.76 in 4.0 mi Variable 6.9 mph - 0.15 in Rain Light Rain
8:53 AM 52.0 °F - 50.0 °F 93% 29.73 in 5.0 mi Variable 3.5 mph - 0.18 in Rain Light Rain
9:53 AM 52.0 °F - 51.1 °F 97% 29.76 in 3.0 mi Calm Calm - 0.06 in Rain Light Rain
10:53 AM 51.1 °F - 50.0 °F 96% 29.75 in 6.0 mi ESE 5.8 mph - 0.12 in Rain Rain
11:53 AM 53.1 °F - 51.1 °F 93% 29.72 in 10.0 mi Calm Calm - 0.01 in   Overcast
12:14 PM 51.8 °F - 51.8 °F 100% 29.76 in 10.0 mi Calm Calm - N/A   Overcast
12:53 PM 54.0 °F - 50.0 °F 86% 29.75 in 10.0 mi Variable 3.5 mph - 0.00 in   Overcast
1:53 PM 55.0 °F - 48.9 °F 80% 29.75 in 10.0 mi Variable 6.9 mph - N/A   Overcast
2:53 PM 57.9 °F - 42.1 °F 56% 29.74 in 10.0 mi WSW 9.2 mph 20.7 mph N/A   Mostly Cloudy
3:53 PM 57.9 °F - 39.9 °F 51% 29.77 in 10.0 mi West 8.1 mph 18.4 mph N/A   Mostly Cloudy
4:53 PM 53.1 °F - 37.9 °F 57% 29.80 in 10.0 mi West 10.4 mph 21.9 mph N/A   Overcast
5:53 PM 48.9 °F - 37.0 °F 64% 29.82 in 10.0 mi WNW 8.1 mph - N/A   Overcast
6:49 PM 46.4 °F 42.4 °F 37.4 °F 71% 29.84 in 10.0 mi NW 8.1 mph - N/A   Overcast
6:53 PM 46.9 °F - 37.0 °F 68% 29.84 in 10.0 mi NW 10.4 mph 16.1 mph N/A   Overcast
7:39 PM 44.6 °F 39.7 °F 35.6 °F 71% 29.86 in 10.0 mi NNW 9.2 mph - N/A   Overcast
7:53 PM 44.1 °F 39.5 °F 35.1 °F 71% 29.88 in 10.0 mi NW 8.1 mph - N/A   Overcast
8:53 PM 42.1 °F 37.1 °F 34.0 °F 73% 29.91 in 10.0 mi NW 8.1 mph 16.1 mph N/A   Overcast
9:53 PM 41.0 °F 35.8 °F 33.1 °F 73% 29.93 in 10.0 mi NW 8.1 mph 26.5 mph 0.00 in   Overcast
10:30 PM 39.2 °F 33.6 °F 33.8 °F 81% 29.92 in 10.0 mi NW 8.1 mph - N/A   Overcast
10:53 PM 39.9 °F 35.1 °F 32.0 °F 73% 29.94 in 10.0 mi WNW 6.9 mph 16.1 mph N/A   Overcast
11:00 PM 39.2 °F 33.6 °F 32.0 °F 75% 29.93 in 10.0 mi NW 8.1 mph - N/A   Overcast
11:53 PM 39.0 °F 33.4 °F 30.0 °F 70% 29.95 in 10.0 mi WNW 8.1 mph 21.9 mph N/A   Overcast
12:53 AM 37.9 °F 32.1 °F 28.9 °F 70% 29.93 in 10.0 mi NW 8.1 mph 17.3 mph N/A   Overcast